• Join FlightAware (Why Join?)
  • Login
  • US Flag 
12:33AM EST


 

Airport Tracker/Info


-or-


 

Live Flight TrackerFlight Track Log ✈ JST627 ✈ 23-Apr-2013 ✈ YSSY / SYD - YMAV / AVV

Flight Track Log - Related Links

Times and Time Zones

All times are in EDT time to prevent confusion due to time zone crossing. See the JST627 flight status page for this flight to view local times or setup timezone preferences in your user account.

Time Position Orientation Groundspeed Altitude Reporting Facility
EDT Latitude Longitude Course Direction KTS MPH feet Rate Location/Type
08:01AM -33.9917 151.1799 183° South 165 190 1,900  Level Aus ATC (RADAR)
08:02AM -34.0386 151.1772 183° South 237 273 3,200 1,800 Climbing Aus ATC (RADAR)
08:03AM -34.1304 151.2086 164° South 341 392 5,200 2,160 Climbing Aus ATC (RADAR)
08:04AM -34.1547 151.2108 176° South 347 399 6,100 3,180 Climbing Aus ATC (RADAR)
08:04AM -34.1969 151.1833 208° Southwest 341 392 7,600 3,300 Climbing Aus ATC (RADAR)
08:05AM -34.2638 151.1096 222° Southwest 341 392 10,800 3,120 Climbing Aus ATC (RADAR)
08:05AM -34.2560 151.1180 222° Southwest 351 404 10,500 2,220 Descending FlightAware
08:06AM -34.3060 151.0640 222° Southwest 364 419 12,300 2,580 Climbing FlightAware
08:06AM -34.3630 151.0020 222° Southwest 368 423 14,200 2,520 Climbing FlightAware
08:07AM -34.4180 150.9440 221° Southwest 374 430 15,900 2,400 Climbing FlightAware
08:08AM -34.4770 150.8790 222° Southwest 388 447 17,600 2,160 Climbing FlightAware
08:08AM -34.5310 150.8200 222° Southwest 395 455 19,000 2,160 Climbing FlightAware
08:09AM -34.5853 150.7468 222° Southwest 386 444 20,500 1,980 Climbing Aus ATC (RADAR)
08:09AM -34.5860 150.7450 222° Southwest 395 455 20,500 1,560 Level FlightAware
08:10AM -34.6310 150.6710 234° Southwest 407 468 21,700 1,620 Climbing FlightAware
08:10AM -34.6569 150.6271 234° Southwest 401 461 22,100 1,620 Climbing Aus ATC (RADAR)
08:11AM -34.6770 150.5930 234° Southwest 413 475 22,800 1,320 Climbing FlightAware
08:11AM -34.7220 150.5190 233° Southwest 422 486 23,500 1,260 Climbing FlightAware
08:12AM -34.7760 150.4300 234° Southwest 427 491 24,600 1,200 Climbing FlightAware
08:13AM -34.8230 150.3500 234° Southwest 441 507 25,200 1,560 Climbing FlightAware
08:13AM -34.8729 150.2676 234° Southwest 424 488 26,700 2,100 Climbing Aus ATC (RADAR)
08:13AM -34.8710 150.2700 234° Southwest 427 491 26,600 1,320 Descending FlightAware
08:14AM -34.9136 150.1982 234° Southwest 422 486 27,500 1,560 Climbing Aus ATC (RADAR)
08:14AM -34.9230 150.1820 234° Southwest 423 487 27,800 2,280 Climbing FlightAware
08:15AM -34.9650 150.1117 234° Southwest 411 473 29,200 1,800 Climbing Aus ATC (RADAR)
08:15AM -35.0213 150.0166 234° Southwest 408 470 30,300 1,260 Climbing Aus ATC (RADAR)
08:16AM -35.0383 149.9878 234° Southwest 409 471 30,600 840 Climbing Aus ATC (RADAR)
08:16AM -35.0440 149.9780 234° Southwest 417 480 30,700 1,800 Climbing FlightAware
08:16AM -35.0719 149.9305 234° Southwest 408 470 31,500 1,620 Climbing Aus ATC (RADAR)
08:17AM -35.1220 149.8450 234° Southwest 409 471 32,600 1,440 Climbing FlightAware
08:17AM -35.1495 149.7991 234° Southwest 400 460 33,200 1,860 Climbing Aus ATC (RADAR)
08:18AM -35.1982 149.7156 234° Southwest 394 453 34,600 1,440 Climbing Aus ATC (RADAR)
08:18AM -35.2040 149.7070 234° Southwest 395 455 34,600 1,020 Level FlightAware
08:19AM -35.2404 149.6436 234° Southwest 387 445 35,300 1,020 Climbing Aus ATC (RADAR)
08:19AM -35.2779 149.5795 234° Southwest 391 450 35,700 600 Climbing Aus ATC (RADAR)
08:20AM -35.3314 149.4874 235° Southwest 393 452 36,200 360 Climbing Aus ATC (RADAR)
08:20AM -35.3473 149.4602 234° Southwest 392 451 36,100 -420 Descending Aus ATC (RADAR)
08:21AM -35.3580 149.4430 234° Southwest 395 455 36,000  Descending FlightAware
08:22AM -35.4388 149.3028 234° Southwest 396 456 36,100 60 Climbing Aus ATC (RADAR)
08:22AM -35.4549 149.2746 235° Southwest 398 458 36,100 120 Level Aus ATC (RADAR)
08:23AM -35.4872 149.2189 235° Southwest 397 457 36,200 -120 Climbing Aus ATC (RADAR)
08:23AM -35.5140 149.1720 235° Southwest 397 457 36,000  Descending FlightAware
08:24AM -35.5568 149.0986 235° Southwest 395 455 36,200 120 Climbing Aus ATC (RADAR)
08:24AM -35.5729 149.0710 234° Southwest 395 455 36,100 -180 Descending Aus ATC (RADAR)
08:24AM -35.6045 149.0154 235° Southwest 393 452 36,100  Level Aus ATC (RADAR)
08:25AM -35.6576 148.9228 235° Southwest 394 453 36,100 -120 Level Aus ATC (RADAR)
08:26AM -35.6690 148.9050 235° Southwest 398 458 36,000  Descending FlightAware
08:26AM -35.7103 148.8306 235° Southwest 393 452 36,100  Climbing Aus ATC (RADAR)
08:26AM -35.7160 148.8210 235° Southwest 397 457 36,000 -180 Descending FlightAware
08:27AM -35.7590 148.7470 234° Southwest 397 457 36,000 60 Level FlightAware
08:27AM -35.7787 148.7108 234° Southwest 392 451 36,100  Climbing Aus ATC (RADAR)
08:28AM -35.8020 148.6700 234° Southwest 398 458 36,000 -120 Descending FlightAware
08:28AM -35.8440 148.5970 235° Southwest 398 458 36,000 180 Level FlightAware
08:29AM -35.8733 148.5440 235° Southwest 393 452 36,200 300 Climbing Aus ATC (RADAR)
08:29AM -35.8891 148.5160 235° Southwest 393 452 36,200 -540 Level Aus ATC (RADAR)
08:29AM -35.8910 148.5130 235° Southwest 397 457 36,000  Descending FlightAware
08:29AM -35.9257 148.4510 235° Southwest 392 451 36,200  Climbing Aus ATC (RADAR)
08:30AM -35.9340 148.4380 235° Southwest 396 456 36,000 -120 Descending FlightAware
08:30AM -35.9779 148.3589 235° Southwest 390 449 36,100  Climbing Aus ATC (RADAR)
08:30AM -35.9760 148.3630 235° Southwest 395 455 36,000 -180 Descending FlightAware
08:31AM -36.0190 148.2870 235° Southwest 396 456 36,000 120 Level FlightAware
08:31AM -36.0247 148.2753 235° Southwest 392 451 36,100  Climbing Aus ATC (RADAR)
08:32AM -36.0650 148.2040 236° Southwest 397 457 36,000  Descending FlightAware
08:32AM -36.0921 148.1541 236° Southwest 393 452 36,100  Climbing Aus ATC (RADAR)
08:32AM -36.1070 148.1300 236° Southwest 398 458 36,000 -120 Descending FlightAware
08:33AM -36.1540 148.0450 236° Southwest 399 459 36,000 60 Level FlightAware
08:34AM -36.1917 147.9764 236° Southwest 394 453 36,100  Climbing Aus ATC (RADAR)
08:34AM -36.1960 147.9710 236° Southwest 400 460 36,000  Descending FlightAware
08:34AM -36.2389 147.8914 236° Southwest 397 457 36,100  Climbing Aus ATC (RADAR)
08:35AM -36.2390 147.8930 236° Southwest 401 461 36,000 -180 Descending FlightAware
08:35AM -36.2870 147.8070 235° Southwest 403 464 36,000 60 Level FlightAware
08:36AM -36.3070 147.7680 235° Southwest 398 458 36,100  Climbing Aus ATC (RADAR)
08:36AM -36.3290 147.7310 235° Southwest 403 464 36,000 -120 Descending FlightAware
08:37AM -36.3760 147.6460 236° Southwest 400 460 36,000 180 Level FlightAware
08:37AM -36.3960 147.6072 236° Southwest 396 456 36,200  Climbing Aus ATC (RADAR)
08:37AM -36.4170 147.5700 236° Southwest 400 460 36,000 -180 Descending FlightAware
08:38AM -36.4427 147.5217 236° Southwest 396 456 36,100  Climbing Aus ATC (RADAR)
08:38AM -36.4590 147.4940 236° Southwest 398 458 36,000 -120 Descending FlightAware
08:39AM -36.5060 147.4080 236° Southwest 399 459 36,000 120 Level FlightAware
08:39AM -36.5100 147.3992 236° Southwest 394 453 36,100 120 Climbing Aus ATC (RADAR)
08:40AM -36.5565 147.3138 236° Southwest 395 455 36,100 -120 Level Aus ATC (RADAR)
08:40AM -36.5690 147.2930 236° Southwest 399 459 36,000  Descending FlightAware
08:40AM -36.6032 147.2286 236° Southwest 396 456 36,100 60 Climbing Aus ATC (RADAR)
08:41AM -36.6289 147.1808 236° Southwest 397 457 36,100 -180 Level Aus ATC (RADAR)
08:41AM -36.6510 147.1420 236° Southwest 400 460 36,000  Descending FlightAware
08:42AM -36.7220 147.0093 236° Southwest 398 458 36,100  Climbing Aus ATC (RADAR)
08:42AM -36.7240 147.0080 236° Southwest 402 463 36,000  Descending FlightAware
08:43AM -36.7532 146.9517 236° Southwest 399 459 36,100  Climbing Aus ATC (RADAR)
08:43AM -36.7960 146.8740 236° Southwest 402 463 36,000  Descending FlightAware
08:44AM -36.8155 146.8364 236° Southwest 398 458 36,100 120 Climbing Aus ATC (RADAR)
08:44AM -36.8414 146.7884 236° Southwest 399 459 36,100  Level Aus ATC (RADAR)
08:45AM -36.8723 146.7302 236° Southwest 401 461 36,100 -240 Level Aus ATC (RADAR)
08:45AM -36.8700 146.7370 236° Southwest 403 464 36,000 120 Descending FlightAware
08:45AM -36.9239 146.6334 236° Southwest 401 461 36,200  Climbing Aus ATC (RADAR)
08:46AM -36.9420 146.6020 236° Southwest 403 464 36,000  Descending FlightAware
08:46AM -36.9604 146.5661 236° Southwest 400 460 36,200 180 Climbing Aus ATC (RADAR)
08:47AM -37.0121 146.4692 236° Southwest 400 460 36,200  Level Aus ATC (RADAR)
08:47AM -37.0276 146.4402 236° Southwest 401 461 36,200 -600 Level Aus ATC (RADAR)
08:47AM -37.0300 146.4380 236° Southwest 403 464 36,000  Descending FlightAware
08:48AM -37.0635 146.3726 236° Southwest 400 460 36,200  Climbing Aus ATC (RADAR)
08:48AM -37.1020 146.3020 236° Southwest 403 464 36,000 -360 Descending FlightAware
08:49AM -37.1508 146.2082 236° Southwest 398 458 35,700 -660 Descending Aus ATC (RADAR)
08:50AM -37.1808 146.1511 237° Southwest 393 452 35,200 -1,080 Descending Aus ATC (RADAR)
08:50AM -37.1850 146.1450 237° Southwest 391 450 35,000 -1,200 Descending FlightAware
08:50AM -37.2250 146.0680 237° Southwest 397 457 34,200 -1,560 Descending FlightAware
08:51AM -37.2468 146.0256 237° Southwest 401 461 33,600 -2,580 Descending Aus ATC (RADAR)
08:51AM -37.2650 145.9920 237° Southwest 405 466 32,500 -3,180 Descending FlightAware
08:52AM -37.3090 145.9090 236° Southwest 413 475 30,200 -3,600 Descending FlightAware
08:52AM -37.3356 145.8570 236° Southwest 417 480 28,900 -3,780 Descending Aus ATC (RADAR)
08:52AM -37.3517 145.8264 237° Southwest 421 484 28,000 -3,420 Descending Aus ATC (RADAR)
08:53AM -37.3620 145.8080 237° Southwest 423 487 27,200 -3,000 Descending FlightAware
08:53AM -37.3845 145.7642 237° Southwest 428 493 26,500 -2,880 Descending Aus ATC (RADAR)
08:54AM -37.4200 145.6970 237° Southwest 416 479 24,600 -3,060 Descending FlightAware
08:54AM -37.4466 145.6404 237° Southwest 422 486 23,500 -3,000 Descending Aus ATC (RADAR)
08:54AM -37.4580 145.6090 237° Southwest 412 474 22,600 -2,880 Descending FlightAware
08:55AM -37.4825 145.5175 237° Southwest 411 473 20,900 -2,700 Descending Aus ATC (RADAR)
08:55AM -37.4820 145.5210 237° Southwest 403 464 20,800 -1,620 Descending FlightAware
08:55AM -37.5100 145.4470 244° Southwest 382 440 19,800 -2,460 Descending FlightAware
08:56AM -37.5492 145.3464 244° Southwest 381 438 17,600 -2,760 Descending Aus ATC (RADAR)
08:56AM -37.5490 145.3480 244° Southwest 379 436 17,500 -2,760 Descending FlightAware
08:57AM -37.5820 145.2620 244° Southwest 377 434 15,300 -2,940 Descending FlightAware
08:58AM -37.6130 145.1820 244° Southwest 363 418 13,400 -2,880 Descending FlightAware
08:58AM -37.6420 145.1070 244° Southwest 352 405 11,500 -2,820 Descending FlightAware
08:59AM -37.6680 145.0390 244° Southwest 344 396 9,700 -3,240 Descending FlightAware
08:59AM -37.6880 144.9870 244° Southwest 346 398 8,300 -3,360 Descending FlightAware
09:00AM -37.7060 144.9430 243° Southwest 338 389 7,200 -1,860 Descending FlightAware
09:00AM -37.7250 144.8930 244° Southwest 315 362 6,600 -1,020 Descending FlightAware
09:01AM -37.7400 144.8530 245° Southwest 292 336 6,300 -660 Descending FlightAware
09:01AM -37.7570 144.8090 244° Southwest 271 312 6,000 -840 Descending FlightAware
09:02AM -37.7730 144.7670 244° Southwest 254 292 5,500 -900 Descending FlightAware
09:02AM -37.7880 144.7270 245° Southwest 241 277 5,100 -780 Descending FlightAware
09:03AM -37.7980 144.6990 246° West 230 265 4,800 -840 Descending FlightAware
09:03AM -37.8100 144.6690 243° Southwest 219 252 4,400 -780 Descending FlightAware
09:03AM -37.8150 144.6540 247° West 217 250 4,300 -840 Descending FlightAware
09:04AM -37.8290 144.6180 244° Southwest 199 229 3,800 -900 Descending FlightAware
09:04AM -37.8390 144.5920 244° Southwest 195 224 3,500 -600 Descending FlightAware
09:05AM -37.8471 144.5703 244° Southwest 196 226 3,400 -600 Descending Aus ATC (RADAR)
09:05AM -37.8500 144.5630 244° Southwest 176 203 3,200 -780 Descending FlightAware
09:05AM -37.8570 144.5450 244° Southwest 172 198 3,000 -300 Descending FlightAware
09:06AM -37.8678 144.5151 244° Southwest 175 201 3,000 -120 Level Aus ATC (RADAR)
09:06AM -37.8730 144.5040 244° Southwest 177 204 2,900 -540 Descending FlightAware
09:06AM -37.8850 144.4930 216° Southwest 179 206 2,700 -840 Descending FlightAware
09:07AM -37.9132 144.4893 216° Southwest 180 207 2,300 -1,020 Descending Aus ATC (RADAR)
09:07AM -37.9090 144.4890 216° Southwest 181 208 2,200 -1,140 Descending FlightAware
09:07AM -37.9330 144.4850 187° South 171 197 1,800 -900 Descending FlightAware
09:08AM -37.9550 144.4820 186° South 148 170 1,400 -900 Descending FlightAware
09:08AM -37.9710 144.4790 188° South 138 159 1,000 -840 Descending FlightAware
09:08AM -37.9810 144.4770 189° South 136 157 800 -420 Descending FlightAware
09:09AM -37.9996 144.4749 189° South 137 158 700 -660 Descending Aus ATC (RADAR)
09:09AM -38.0279 144.4698 188° South 137 158 100 -840 Descending Aus ATC (RADAR)
09:12AM -38.0394 144.4695 41° Northeast  Level FlightAware Approximate
09:19AM -38.0394 144.4694 41° Northeast  Level Estimated
09:20AM -38.0394 144.4694 41° Northeast  Level Estimated
09:21AM -38.0394 144.4694 41° Northeast  Level Estimated
09:22AM -38.0394 144.4694 41° Northeast  Level Estimated
09:23AM -38.0394 144.4694 41° Northeast  Level Estimated
09:24AM -38.0394 144.4694 41° Northeast  Level Estimated
09:25AM -38.0394 144.4694 41° Northeast  Level Estimated
09:26AM -38.0394 144.4694 41° Northeast  Level Estimated
09:27AM -38.0394 144.4694 41° Northeast  Level Estimated